Home   Weather   Hemer   Past weeks

Flag for Germany Past Weather in Hemer, North Rhine-Westphalia, Germany — Yesterday and Last 2 Weeks

Now
55 °F

Light rain. Partly cloudy.


Feels Like: 53 °F
Forecast: 50 / 60 °F
Wind: 10 mph from Southwest

Location: Paderborn / Lippstadt

Current Time: Sep 30, 2016 at 1:55:28 AM

Latest Report: Sep 30, 2016 at 1:20 AM


Visibility: N/A

Pressure: 29.95 "Hg

Humidity: 88%

Dew Point: 52 °F

Location of HemerLocation

Past Weather in Hemer — Graph

°F

Hemer Temperature Yesterday

Maximum temperature yesterday: 75 °F (at 3:50 PM)
Minimum temperature yesterday: 61 °F (at 7:20 AM)
Average temperature yesterday: 67 °F

High & Low Weather Summary for the Past Weeks

 TemperatureHumidityPressure
High84 °F (Sep 15, 4:20 PM)94% (Sep 17, 3:20 PM)30.33 "Hg (Sep 17, 3:20 PM)
Low43 °F (Sep 21, 5:50 AM)28% (Sep 25, 2:50 PM)29.83 "Hg (Sep 15, 4:20 PM)
Average61 °F64%30.11 "Hg
* Reported Sep 15 12:20 AM — Sep 30 12:20 AM, Hemer, Weather by CustomWeather, © 2016

Note: Actual official high and low records may vary slightly from our data, if they occured in-between our weather recording intervals... More about our weather records

Advertising

Hemer Weather History for the Previous 24 Hours

Scroll right to see more
 ConditionsComfort  
Time TempWeatherWind HumidityBarometerVisibility
12:20 AM
Fri, Sep 30
55 °FLight rain. Partly cloudy.9 mph94%29.95 "Hg5 mi
11:50 PM
Thu, Sep 29
61 °FLight rain. Passing clouds.13 mph77%29.95 "Hg5 mi
11:20 PM64 °FPassing clouds.12 mph68%29.92 "HgN/A
10:50 PM66 °FPassing clouds.10 mph56%29.92 "HgN/A
10:20 PM66 °FPassing clouds.14 mph56%29.92 "HgN/A
9:50 PM66 °FPassing clouds.13 mph56%29.92 "HgN/A
9:20 PM68 °FPassing clouds.12 mph53%29.92 "HgN/A
8:50 PM68 °FPassing clouds.12 mph53%29.92 "HgN/A
8:20 PM68 °FPassing clouds.14 mph53%29.92 "HgN/A
7:50 PM68 °FClear.15 mph53%29.92 "Hg10 mi
7:20 PM68 °FClear.14 mph53%29.92 "Hg10 mi
6:50 PM68 °FPassing clouds.10 mph53%29.92 "HgN/A
6:20 PM70 °FPassing clouds.9 mph50%29.92 "HgN/A
5:50 PM72 °FPassing clouds.9 mph50%29.92 "HgN/A
5:20 PM73 °FPassing clouds.12 mph44%29.92 "HgN/A
4:50 PM73 °FPassing clouds.23 mph41%29.92 "HgN/A
4:20 PM73 °FPassing clouds.17 mph47%29.92 "HgN/A
3:50 PM75 °FSunny.17 mph44%29.92 "Hg10 mi
3:20 PM73 °FSunny.18 mph44%29.95 "Hg10 mi
2:50 PM73 °FSunny.20 mph44%29.95 "Hg10 mi
2:20 PM73 °FSunny.17 mph44%29.95 "Hg10 mi
1:50 PM73 °FSunny.21 mph44%29.98 "Hg10 mi
1:20 PM73 °FSunny.15 mph44%29.98 "Hg10 mi
12:50 PM72 °FSunny.15 mph50%30.01 "Hg10 mi
12:20 PM68 °FSunny.16 mph56%30.01 "Hg10 mi
11:50 AM68 °FSunny.16 mph56%30.01 "Hg10 mi
11:20 AM68 °FSunny.17 mph56%30.04 "Hg10 mi
10:50 AM66 °FSunny.15 mph60%30.07 "Hg10 mi
10:20 AM66 °FSunny.14 mph64%30.07 "Hg10 mi
9:50 AM64 °FSunny.13 mph64%30.07 "Hg10 mi
9:20 AM64 °FSunny.13 mph64%30.07 "Hg10 mi
8:50 AM63 °FSunny.10 mph68%30.07 "Hg10 mi
8:20 AM61 °FSunny.14 mph72%30.09 "Hg10 mi
7:50 AM63 °FSunny.16 mph64%30.09 "Hg10 mi
7:20 AM61 °FClear.13 mph68%30.09 "Hg10 mi
6:50 AM63 °FClear.14 mph64%30.09 "Hg10 mi
6:20 AM63 °FClear.13 mph64%30.12 "Hg10 mi
5:50 AM63 °FPassing clouds.10 mph64%30.12 "HgN/A
5:20 AM63 °FPassing clouds.10 mph68%30.12 "HgN/A
4:50 AM64 °FPassing clouds.15 mph64%30.12 "HgN/A
4:20 AM66 °FPassing clouds.15 mph56%30.15 "HgN/A
3:50 AM66 °FPassing clouds.14 mph56%30.15 "HgN/A
3:20 AM64 °FPassing clouds.13 mph64%30.15 "HgN/A
2:50 AM66 °FPartly cloudy.13 mph60%30.18 "HgN/A
2:20 AM64 °FPartly cloudy.14 mph64%30.18 "HgN/A
1:50 AM66 °FPartly cloudy.14 mph60%30.18 "HgN/A
1:20 AM64 °FPartly cloudy.13 mph64%30.18 "HgN/A
Weather by CustomWeather, © 2016

See weather overviewHow to use our weather pages